weather.gov     
National Weather Service

Regional Weather Roundup
NWS Homepage
This page is being discontinued on March 12, 2014.
The same data is available at this site. Please update your bookmarks.
Thank you, and we apologize for the inconvenience.
Please send an email to SR-SRH.Webmaster@noaa.gov with any concerns.


Current Version
Previous Version:    01  02  03  04  05  06  07  08  09  10  11  12  13  14  15  16  17  18  19  20  21  22  23  24  25  26  27  28  29  30  
   31  32  33  34  35  36  37  38  39  40  41  42  43  44  45  46  47  48  49  50  51  52  53  54  55  56  57  58  59  60  
[Printable]
806
ASUS44 KLIX 241010
RWRLA
LOUISIANA WEATHER ROUNDUP
NATIONAL WEATHER SERVICE NEW ORLEANS LA
500 AM CDT THU JUL 24 2014

NOTE: "FAIR" INDICATES FEW OR NO CLOUDS BELOW 12,000 FEET WITH NO
      SIGNIFICANT WEATHER AND/OR OBSTRUCTIONS TO VISIBILITY.
      SKY/WX - SKY CONDITION AND SIGNIFICANT WEATHER.
      TMP - AIR TEMPERATURE.    DP   - DEWPOINT TEMPERATURE.
      RH  - RELATIVE HUMIDITY.  PRES - PRESSURE.
      HX  - HEAT INDEX.         WCI  - WIND CHILL INDEX.

*  THESE STATIONS ARE NOT NWS OR FAA STATIONS AND ARE NOT UNDER
   NWS QUALITY CONTROL.

LAZ040-048-061>063-065-066-069-241100-
SOUTHEAST LOUISIANA

CITY           SKY/WX    TMP DP  RH WIND       PRES   REMARKS
N.O. AUDUBON     N/A     79  73  80 MISG        N/A
N.O. INTL ARPT PTCLDY    75  72  90 S3        29.96R
N.O. LAKEFRONT CLEAR     76  73  91 SE6       29.96R
N.O. DOWNTOWN* FAIR      79  70  73 SE3       29.96S
SLIDELL        CLEAR     71  69  93 N3        29.96R
BATON ROUGE    PTCLDY    74  72  93 CALM      29.97R
BOOTHVILLE       N/A     79  74  84 S7        29.97R
BELLE CHASSE   CLEAR     74  70  87 CALM      29.96R
BOGALUSA*        N/A     71  68  89 CALM      29.99R
GALLIANO*      NOT AVBL
NEW ROADS*     FAIR      73  73  98 CALM      29.97R FOG
GONZALES*      FAIR      72  72 100 CALM      29.96R FOG
HAMMOND*       CLEAR     72  70  94 CALM      29.99R
HOUMA*         CLEAR     72  69  91 CALM      29.96R FOG
PORT FOURCHON* MOSUNNY   81  73  78 SW8       29.98R

$$

LAZ041-044-053-054-241100-
SOUTHWEST LOUISIANA

CITY           SKY/WX    TMP DP  RH WIND       PRES   REMARKS
LAKE CHARLES   MOCLDY    75  72  90 N3        29.94S
LAFAYETTE      PTCLDY    75  73  93 CALM      29.96S
PATTERSON      CLEAR     73  72  94 CALM      29.99R
SALT POINT       N/A     79  75  87 CALM      29.95S
NEW IBERIA     PTCLDY    76  72  87 CALM      29.97R
CHENAULT AIRPK NOT AVBL

$$

LAZ027-028-241100-
CENTRAL LOUISIANA

CITY           SKY/WX    TMP DP  RH WIND       PRES   REMARKS
FORT POLK      PTCLDY    71  70  96 N9        29.99R
ALEXANDRIA INT PTCLDY    73  70  90 SW3       29.97S
ALEXANDRIA     PTCLDY    72  70  93 SW3       29.99R

$$

LAZ001-002-241100-
NORTHWEST LOUISIANA

CITY           SKY/WX    TMP DP  RH WIND       PRES   REMARKS
SHREVEPORT     CLOUDY    71  69  93 N6        30.02R
BARKSDALE AFB  CLOUDY    68  68 100 N7        30.02R FOG
DTN SHREVEPORT NOT AVBL

$$

LAZ014-016-241100-
NORTHEAST LOUISIANA

CITY           SKY/WX    TMP DP  RH WIND       PRES   REMARKS
MONROE         CLOUDY    71  68  90 N5        30.00R
TALLULAH       CLEAR     71  70  96 CALM      29.97S FOG

$$





U.S. Dept. of Commerce
NOAA National Weather Service
1325 East West Highway
Silver Spring, MD 20910
E-mail: w-nws.webmaster@noaa.gov
Page last modified: May 16, 2007
NATIONAL WEATHER SERVICE: for Safety, for Work, for Fun - FOR LIFE